#Datum;Uhrzeit;WR;Pac;DaySum;Status;WR;Pac;DaySum;Status;Pdc1;Udc;Temp;WR;Pac;DaySum;Status;Pdc1;Udc;Temp;WR;Pac;DaySum;Status;Pdc1;Udc;Temp;WR;Pac;DaySum;Status;Pdc1;Pdc2;Udc1;Udc2;Temp;WR;Pac;DaySum;Status;Pdc1;Pdc2;Udc1;Udc2;Temp;WR;Pac;DaySum;Status;Pdc1;Udc;Temp;WR;Pac;DaySum;Status;Pdc1;Udc;Temp;WR;Pac;DaySum;Status;Pdc1;Udc;Temp
02.03.20;23:55:00;1;328;9885;0;2;0;14030;0;0;0;0;3;0;9459;0;0;0;0;4;0;15137;0;0;0;0;5;0;43555;0;0;0;0;0;0;6;0;32903;0;0;0;0;0;0;7;0;23677;0;0;0;0;8;0;23485;0;0;0;0;9;0;12962;0;0;0;0
02.03.20;23:50:00;1;400;9857;0;2;0;14030;0;0;0;0;3;0;9459;0;0;0;0;4;0;15137;0;0;0;0;5;0;43555;0;0;0;0;0;0;6;0;32903;0;0;0;0;0;0;7;0;23677;0;0;0;0;8;0;23485;0;0;0;0;9;0;12962;0;0;0;0
02.03.20;23:45:00;1;495;9823;0;2;0;14030;0;0;0;0;3;0;9459;0;0;0;0;4;0;15137;0;0;0;0;5;0;43555;0;0;0;0;0;0;6;0;32903;0;0;0;0;0;0;7;0;23677;0;0;0;0;8;0;23485;0;0;0;0;9;0;12962;0;0;0;0
02.03.20;23:40:00;1;530;9781;0;2;0;14030;0;0;0;0;3;0;9459;0;0;0;0;4;0;15137;0;0;0;0;5;0;43555;0;0;0;0;0;0;6;0;32903;0;0;0;0;0;0;7;0;23677;0;0;0;0;8;0;23485;0;0;0;0;9;0;12962;0;0;0;0
02.03.20;23:35:00;1;489;9737;0;2;0;14030;0;0;0;0;3;0;9459;0;0;0;0;4;0;15137;0;0;0;0;5;0;43555;0;0;0;0;0;0;6;0;32903;0;0;0;0;0;0;7;0;23677;0;0;0;0;8;0;23485;0;0;0;0;9;0;12962;0;0;0;0
02.03.20;23:30:00;1;492;9696;0;2;0;14030;0;0;0;0;3;0;9459;0;0;0;0;4;0;15137;0;0;0;0;5;0;43555;0;0;0;0;0;0;6;0;32903;0;0;0;0;0;0;7;0;23677;0;0;0;0;8;0;23485;0;0;0;0;9;0;12962;0;0;0;0
02.03.20;23:25:00;1;530;9655;0;2;0;14030;0;0;0;0;3;0;9459;0;0;0;0;4;0;15137;0;0;0;0;5;0;43555;0;0;0;0;0;0;6;0;32903;0;0;0;0;0;0;7;0;23677;0;0;0;0;8;0;23485;0;0;0;0;9;0;12962;0;0;0;0
02.03.20;23:20:00;1;530;9611;0;2;0;14030;0;0;0;0;3;0;9459;0;0;0;0;4;0;15137;0;0;0;0;5;0;43555;0;0;0;0;0;0;6;0;32903;0;0;0;0;0;0;7;0;23677;0;0;0;0;8;0;23485;0;0;0;0;9;0;12962;0;0;0;0
02.03.20;23:15:00;1;471;9567;0;2;0;14030;0;0;0;0;3;0;9459;0;0;0;0;4;0;15137;0;0;0;0;5;0;43555;0;0;0;0;0;0;6;0;32903;0;0;0;0;0;0;7;0;23677;0;0;0;0;8;0;23485;0;0;0;0;9;0;12962;0;0;0;0
02.03.20;23:10:00;1;445;9528;0;2;0;14030;0;0;0;0;3;0;9459;0;0;0;0;4;0;15137;0;0;0;0;5;0;43555;0;0;0;0;0;0;6;0;32903;0;0;0;0;0;0;7;0;23677;0;0;0;0;8;0;23485;0;0;0;0;9;0;12962;0;0;0;0
02.03.20;23:05:00;1;417;9491;0;2;0;14030;0;0;0;0;3;0;9459;0;0;0;0;4;0;15137;0;0;0;0;5;0;43555;0;0;0;0;0;0;6;0;32903;0;0;0;0;0;0;7;0;23677;0;0;0;0;8;0;23485;0;0;0;0;9;0;12962;0;0;0;0
02.03.20;23:00:00;1;420;9456;0;2;0;14030;0;0;0;0;3;0;9459;0;0;0;0;4;0;15137;0;0;0;0;5;0;43555;0;0;0;0;0;0;6;0;32903;0;0;0;0;0;0;7;0;23677;0;0;0;0;8;0;23485;0;0;0;0;9;0;12962;0;0;0;0
02.03.20;22:55:00;1;418;9421;0;2;0;14030;0;0;0;0;3;0;9459;0;0;0;0;4;0;15137;0;0;0;0;5;0;43555;2;0;0;0;0;0;6;0;32903;2;0;0;0;0;0;7;0;23677;0;0;0;0;8;0;23485;0;0;0;0;9;0;12962;0;0;0;0
02.03.20;22:50:00;1;418;9386;0;2;0;14030;0;0;0;0;3;0;9459;0;0;0;0;4;0;15137;0;0;0;0;5;0;43555;2;0;0;0;0;0;6;0;32903;2;0;0;0;0;0;7;0;23677;0;0;0;0;8;0;23485;0;0;0;0;9;0;12962;0;0;0;0
02.03.20;22:45:00;1;479;9351;0;2;0;14030;0;0;0;0;3;0;9459;0;0;0;0;4;0;15137;0;0;0;0;5;0;43555;2;0;0;0;0;0;6;0;32903;2;0;0;0;0;0;7;0;23677;0;0;0;0;8;0;23485;0;0;0;0;9;0;12962;0;0;0;0
02.03.20;22:40:00;1;599;9310;0;2;0;14030;0;0;0;0;3;0;9459;0;0;0;0;4;0;15137;0;0;0;0;5;0;43555;2;0;0;0;0;0;6;0;32903;2;0;0;0;0;0;7;0;23677;0;0;0;0;8;0;23485;0;0;0;0;9;0;12962;0;0;0;0
02.03.20;22:35:00;1;526;9267;0;2;0;14030;0;0;0;0;3;0;9459;0;0;0;0;4;0;15137;0;0;0;0;5;0;43555;2;0;0;0;0;0;6;0;32903;2;0;0;0;0;0;7;0;23677;0;0;0;0;8;0;23485;0;0;0;0;9;0;12962;0;0;0;0
02.03.20;22:30:00;1;525;9223;0;2;0;14030;0;0;0;0;3;0;9459;0;0;0;0;4;0;15137;0;0;0;0;5;0;43555;2;0;0;0;0;0;6;0;32903;2;0;0;0;0;0;7;0;23677;0;0;0;0;8;0;23485;0;0;0;0;9;0;12962;0;0;0;0
02.03.20;22:25:00;1;508;9180;0;2;0;14030;0;0;0;0;3;0;9459;0;0;0;0;4;0;15137;0;0;0;0;5;0;43555;2;0;0;0;0;0;6;0;32903;2;0;0;0;0;0;7;0;23677;0;0;0;0;8;0;23485;0;0;0;0;9;0;12962;0;0;0;0
02.03.20;22:20:00;1;509;9138;0;2;0;14030;0;0;0;0;3;0;9459;0;0;0;0;4;0;15137;0;0;0;0;5;0;43555;2;0;0;0;0;0;6;0;32903;2;0;0;0;0;0;7;0;23677;0;0;0;0;8;0;23485;0;0;0;0;9;0;12962;0;0;0;0
02.03.20;22:15:00;1;563;9095;0;2;0;14030;0;0;0;0;3;0;9459;0;0;0;0;4;0;15137;0;0;0;0;5;0;43555;2;0;0;0;0;0;6;0;32903;2;0;0;0;0;0;7;0;23677;0;0;0;0;8;0;23485;0;0;0;0;9;0;12962;0;0;0;0
02.03.20;22:10:00;1;510;9048;0;2;0;14030;0;0;0;0;3;0;9459;0;0;0;0;4;0;15137;0;0;0;0;5;0;43555;2;0;0;0;0;0;6;0;32903;2;0;0;0;0;0;7;0;23677;0;0;0;0;8;0;23485;0;0;0;0;9;0;12962;0;0;0;0
02.03.20;22:05:00;1;479;9005;0;2;0;14030;0;0;0;0;3;0;9459;0;0;0;0;4;0;15137;0;0;0;0;5;0;43555;2;0;0;0;0;0;6;0;32903;2;0;0;0;0;0;7;0;23677;0;0;0;0;8;0;23485;0;0;0;0;9;0;12962;0;0;0;0
02.03.20;22:00:00;1;485;8965;0;2;0;14030;0;0;0;0;3;0;9459;0;0;0;0;4;0;15137;0;0;0;0;5;0;43555;2;0;0;0;0;0;6;0;32903;2;0;0;0;0;0;7;0;23677;0;0;0;0;8;0;23485;0;0;0;0;9;0;12962;0;0;0;0
02.03.20;21:55:00;1;493;8925;0;2;0;14030;0;0;0;0;3;0;9459;0;0;0;0;4;0;15137;0;0;0;0;5;0;43555;2;0;0;0;0;0;6;0;32903;2;0;0;0;0;0;7;0;23677;0;0;0;0;8;0;23485;0;0;0;0;9;0;12962;0;0;0;0
02.03.20;21:50:00;1;601;8882;0;2;0;14030;0;0;0;0;3;0;9459;0;0;0;0;4;0;15137;0;0;0;0;5;0;43555;2;0;0;0;0;0;6;0;32903;2;0;0;0;0;0;7;0;23677;0;0;0;0;8;0;23485;0;0;0;0;9;0;12962;0;0;0;0
02.03.20;21:45:00;1;635;8831;0;2;0;14030;0;0;0;0;3;0;9459;0;0;0;0;4;0;15137;0;0;0;0;5;0;43555;2;0;0;0;0;0;6;0;32903;2;0;0;0;0;0;7;0;23677;0;0;0;0;8;0;23485;0;0;0;0;9;0;12962;0;0;0;0
02.03.20;21:40:00;1;592;8778;0;2;0;14030;0;0;0;0;3;0;9459;0;0;0;0;4;0;15137;0;0;0;0;5;0;43555;2;0;0;0;0;0;6;0;32903;2;0;0;0;0;0;7;0;23677;0;0;0;0;8;0;23485;0;0;0;0;9;0;12962;0;0;0;0
02.03.20;21:35:00;1;556;8729;0;2;0;14030;0;0;0;0;3;0;9459;0;0;0;0;4;0;15137;0;0;0;0;5;0;43555;2;0;0;0;0;0;6;0;32903;2;0;0;0;0;0;7;0;23677;0;0;0;0;8;0;23485;0;0;0;0;9;0;12962;0;0;0;0
02.03.20;21:30:00;1;564;8683;0;2;0;14030;0;0;0;0;3;0;9459;0;0;0;0;4;0;15137;0;0;0;0;5;0;43555;2;0;0;0;0;0;6;0;32903;2;0;0;0;0;0;7;0;23677;0;0;0;0;8;0;23485;0;0;0;0;9;0;12962;0;0;0;0
02.03.20;21:25:00;1;572;8635;0;2;0;14030;0;0;0;0;3;0;9459;0;0;0;0;4;0;15137;0;0;0;0;5;0;43555;2;0;0;0;0;0;6;0;32903;2;0;0;0;0;0;7;0;23677;0;0;0;0;8;0;23485;0;0;0;0;9;0;12962;0;0;0;0
02.03.20;21:20:00;1;625;8588;0;2;0;14030;0;0;0;0;3;0;9459;0;0;0;0;4;0;15137;0;0;0;0;5;0;43555;2;0;0;0;0;0;6;0;32903;2;0;0;0;0;0;7;0;23677;0;0;0;0;8;0;23485;0;0;0;0;9;0;12962;0;0;0;0
02.03.20;21:15:00;1;504;8535;0;2;0;14030;0;0;0;0;3;0;9459;0;0;0;0;4;0;15137;0;0;0;0;5;0;43555;2;0;0;0;0;0;6;0;32903;2;0;0;0;0;0;7;0;23677;0;0;0;0;8;0;23485;0;0;0;0;9;0;12962;0;0;0;0
02.03.20;21:10:00;1;509;8492;0;2;0;14030;0;0;0;0;3;0;9459;0;0;0;0;4;0;15137;0;0;0;0;5;0;43555;2;0;0;0;0;0;6;0;32903;2;0;0;0;0;0;7;0;23677;0;0;0;0;8;0;23485;0;0;0;0;9;0;12962;0;0;0;0
02.03.20;21:05:00;1;554;8450;0;2;0;14030;0;0;0;0;3;0;9459;0;0;0;0;4;0;15137;0;0;0;0;5;0;43555;2;0;0;0;0;0;6;0;32903;2;0;0;0;0;0;7;0;23677;0;0;0;0;8;0;23485;0;0;0;0;9;0;12962;0;0;0;0
02.03.20;21:00:00;1;602;8403;0;2;0;14030;0;0;0;0;3;0;9459;0;0;0;0;4;0;15137;0;0;0;0;5;0;43555;2;0;0;0;0;0;6;0;32903;2;0;0;0;0;0;7;0;23677;0;0;0;0;8;0;23485;0;0;0;0;9;0;12962;0;0;0;0
02.03.20;20:55:00;1;620;8353;0;2;0;14030;0;0;0;0;3;0;9459;0;0;0;0;4;0;15137;0;0;0;0;5;0;43555;2;0;0;0;0;0;6;0;32903;2;0;0;0;0;0;7;0;23677;0;0;0;0;8;0;23485;0;0;0;0;9;0;12962;0;0;0;0
02.03.20;20:50:00;1;590;8302;0;2;0;14030;0;0;0;0;3;0;9459;0;0;0;0;4;0;15137;0;0;0;0;5;0;43555;2;0;0;0;0;0;6;0;32903;2;0;0;0;0;0;7;0;23677;0;0;0;0;8;0;23485;0;0;0;0;9;0;12962;0;0;0;0
02.03.20;20:45:00;1;514;8252;0;2;0;14030;0;0;0;0;3;0;9459;0;0;0;0;4;0;15137;0;0;0;0;5;0;43555;2;0;0;0;0;0;6;0;32903;2;0;0;0;0;0;7;0;23677;0;0;0;0;8;0;23485;0;0;0;0;9;0;12962;0;0;0;0
02.03.20;20:40:00;1;507;8209;0;2;0;14030;0;0;0;0;3;0;9459;0;0;0;0;4;0;15137;0;0;0;0;5;0;43555;2;0;0;0;0;0;6;0;32903;2;0;0;0;0;0;7;0;23677;0;0;0;0;8;0;23485;0;0;0;0;9;0;12962;0;0;0;0
02.03.20;20:35:00;1;510;8167;0;2;0;14030;0;0;0;0;3;0;9459;0;0;0;0;4;0;15137;0;0;0;0;5;0;43555;2;0;0;0;0;0;6;0;32903;2;0;0;0;0;0;7;0;23677;0;0;0;0;8;0;23485;0;0;0;0;9;0;12962;0;0;0;0
02.03.20;20:30:00;1;508;8124;0;2;0;14030;0;0;0;0;3;0;9459;0;0;0;0;4;0;15137;0;0;0;0;5;0;43555;2;0;0;0;0;0;6;0;32903;2;0;0;0;0;0;7;0;23677;0;0;0;0;8;0;23485;0;0;0;0;9;0;12962;0;0;0;0
02.03.20;20:25:00;1;511;8082;0;2;0;14030;0;0;0;0;3;0;9459;0;0;0;0;4;0;15137;0;0;0;0;5;0;43555;2;0;0;0;0;0;6;0;32903;2;0;0;0;0;0;7;0;23677;0;0;0;0;8;0;23485;0;0;0;0;9;0;12962;0;0;0;0
02.03.20;20:20:00;1;578;8039;0;2;0;14030;0;0;0;0;3;0;9459;0;0;0;0;4;0;15137;0;0;0;0;5;0;43555;2;0;0;0;0;0;6;0;32903;2;0;0;0;0;0;7;0;23677;0;0;0;0;8;0;23485;0;0;0;0;9;0;12962;0;0;0;0
02.03.20;20:15:00;1;552;7992;0;2;0;14030;0;0;0;0;3;0;9459;0;0;0;0;4;0;15137;0;0;0;0;5;0;43555;2;0;0;0;0;0;6;0;32903;2;0;0;0;0;0;7;0;23677;0;0;0;0;8;0;23485;0;0;0;0;9;0;12962;0;0;0;0
02.03.20;20:10:00;1;554;7946;0;2;0;14030;0;0;0;0;3;0;9459;0;0;0;0;4;0;15137;0;0;0;0;5;0;43555;2;0;0;0;0;0;6;0;32903;2;0;0;0;0;0;7;0;23677;0;0;0;0;8;0;23485;0;0;0;0;9;0;12962;0;0;0;0
02.03.20;20:05:00;1;545;7900;0;2;0;14030;0;0;0;0;3;0;9459;0;0;0;0;4;0;15137;0;0;0;0;5;0;43555;2;0;0;0;0;0;6;0;32903;2;0;0;0;0;0;7;0;23677;0;0;0;0;8;0;23485;0;0;0;0;9;0;12962;0;0;0;0
02.03.20;20:00:00;1;519;7855;0;2;0;14030;0;0;0;0;3;0;9459;0;0;0;0;4;0;15137;0;0;0;0;5;0;43555;2;0;0;0;0;0;6;0;32903;2;0;0;0;0;0;7;0;23677;0;0;0;0;8;0;23485;0;0;0;0;9;0;12962;0;0;0;0
02.03.20;19:55:00;1;593;7811;0;2;0;14030;0;0;0;0;3;0;9459;0;0;0;0;4;0;15137;0;0;0;0;5;0;43555;2;0;0;0;0;0;6;0;32903;2;0;0;0;0;0;7;0;23677;0;0;0;0;8;0;23485;0;0;0;0;9;0;12962;0;0;0;0
02.03.20;19:50:00;1;602;7761;0;2;0;14030;0;0;0;0;3;0;9459;0;0;0;0;4;0;15137;0;0;0;0;5;0;43555;2;0;0;0;0;0;6;0;32903;2;0;0;0;0;0;7;0;23677;0;0;0;0;8;0;23485;0;0;0;0;9;0;12962;0;0;0;0
02.03.20;19:45:00;1;650;7710;0;2;0;14030;0;0;0;0;3;0;9459;0;0;0;0;4;0;15137;0;0;0;0;5;0;43555;2;0;0;0;0;0;6;0;32903;2;0;0;0;0;0;7;0;23677;0;0;0;0;8;0;23485;0;0;0;0;9;0;12962;0;0;0;0
02.03.20;19:40:00;1;678;7656;0;2;0;14030;0;0;0;0;3;0;9459;0;0;0;0;4;0;15137;0;0;0;0;5;0;43555;2;0;0;0;0;0;6;0;32903;2;0;0;0;0;0;7;0;23677;0;0;0;0;8;0;23485;0;0;0;0;9;0;12962;0;0;0;0
02.03.20;19:35:00;1;674;7600;0;2;0;14030;0;0;0;0;3;0;9459;0;0;0;0;4;0;15137;0;0;0;0;5;0;43555;2;0;0;0;0;0;6;0;32903;2;0;0;0;0;0;7;0;23677;0;0;0;0;8;0;23485;0;0;0;0;9;0;12962;0;0;0;0
02.03.20;19:30:00;1;730;7543;0;2;0;14030;0;0;0;0;3;0;9459;0;0;0;0;4;0;15137;0;0;0;0;5;0;43555;2;0;0;0;0;0;6;0;32903;2;0;0;0;0;0;7;0;23677;0;0;0;0;8;0;23485;0;0;0;0;9;0;12962;0;0;0;0
02.03.20;19:25:00;1;1005;7481;0;2;0;14030;0;0;0;0;3;0;9459;0;0;0;0;4;0;15137;0;0;0;0;5;0;43555;2;0;0;0;0;0;6;0;32903;2;0;0;0;0;0;7;0;23677;0;0;0;0;8;0;23485;0;0;0;0;9;0;12962;0;0;0;0
02.03.20;19:20:00;1;1201;7394;0;2;0;14030;0;0;0;0;3;0;9459;0;0;0;0;4;0;15137;0;0;0;0;5;0;43555;2;0;0;0;0;0;6;0;32903;2;0;0;0;0;0;7;0;23677;0;0;0;0;8;0;23485;0;0;0;0;9;0;12962;0;0;0;0
02.03.20;19:15:00;1;971;7295;0;2;0;14030;0;0;0;0;3;0;9459;0;0;0;0;4;0;15137;0;0;0;0;5;0;43555;2;0;0;0;0;0;6;0;32903;2;0;0;0;0;0;7;0;23677;0;0;0;0;8;0;23485;0;0;0;0;9;0;12962;0;0;0;0
02.03.20;19:10:00;1;609;7216;0;2;0;14030;0;0;0;0;3;0;9459;0;0;0;0;4;0;15137;0;0;0;0;5;0;43555;2;0;0;0;0;0;6;0;32903;2;0;0;0;0;0;7;0;23677;0;0;0;0;8;0;23485;0;0;0;0;9;0;12962;0;0;0;0
02.03.20;19:05:00;1;472;7166;0;2;0;14030;0;0;0;0;3;0;9459;0;0;0;0;4;0;15137;0;0;0;0;5;0;43555;2;0;0;0;0;0;6;0;32903;2;0;0;0;0;0;7;0;23677;0;0;0;0;8;0;23485;0;0;0;0;9;0;12962;0;0;0;0
02.03.20;19:00:00;1;367;7126;0;2;0;14030;0;0;0;0;3;0;9459;0;0;0;0;4;0;15137;0;0;0;0;5;0;43555;2;0;0;0;0;0;6;0;32903;2;0;0;0;0;0;7;0;23677;0;0;0;0;8;0;23485;0;0;0;0;9;0;12962;0;0;0;0
02.03.20;18:55:00;1;389;7096;0;2;0;14030;0;0;0;0;3;0;9459;0;0;0;0;4;0;15137;0;0;0;0;5;0;43555;2;0;0;0;0;0;6;0;32903;2;0;0;0;0;0;7;0;23677;0;0;0;0;8;0;23485;0;0;0;0;9;0;12962;0;0;0;0
02.03.20;18:50:00;1;388;7063;0;2;0;14030;0;0;0;0;3;0;9459;0;0;0;0;4;0;15137;0;0;0;0;5;0;43555;2;0;0;0;0;0;6;0;32903;2;0;0;0;0;0;7;0;23677;0;0;0;0;8;0;23485;0;0;0;0;9;0;12962;0;0;0;0
02.03.20;18:45:00;1;415;7029;0;2;0;14030;0;0;0;0;3;0;9459;0;0;0;0;4;0;15137;0;0;0;0;5;0;43555;2;0;0;0;0;0;6;0;32903;2;0;0;0;0;0;7;0;23677;0;0;0;0;8;0;23485;0;0;0;0;9;0;12962;0;0;0;0
02.03.20;18:40:00;1;468;6994;0;2;0;14030;0;0;0;0;3;0;9459;0;0;0;0;4;0;15137;0;0;0;0;5;0;43555;2;0;0;0;0;0;6;0;32903;2;0;0;0;0;0;7;0;23677;0;0;0;0;8;0;23485;0;0;0;0;9;0;12962;0;0;0;0
02.03.20;18:35:00;1;709;6954;0;2;0;14030;0;0;0;0;3;0;9459;0;0;0;0;4;0;15137;0;0;0;0;5;0;43555;2;0;0;0;0;0;6;0;32903;2;0;0;0;0;0;7;0;23677;0;0;0;0;8;0;23485;0;0;0;0;9;0;12962;0;0;0;0
02.03.20;18:30:00;1;895;6894;0;2;0;14030;0;0;0;0;3;0;9459;0;0;0;0;4;0;15137;0;0;0;0;5;0;43555;2;0;0;0;0;0;6;0;32903;2;0;0;0;0;0;7;0;23677;0;0;0;0;8;0;23485;0;0;0;0;9;0;12962;0;0;0;0
02.03.20;18:25:00;1;897;6819;0;2;0;14030;0;0;0;0;3;0;9459;0;0;0;0;4;0;15137;0;0;0;0;5;0;43555;2;0;0;0;0;0;6;0;32903;2;0;0;0;0;0;7;0;23677;0;0;0;0;8;0;23485;0;0;0;0;9;0;12962;0;0;0;0
02.03.20;18:20:00;1;930;6744;0;2;0;14030;0;0;0;0;3;0;9459;0;0;0;0;4;0;15137;0;0;0;0;5;0;43555;2;0;0;0;0;0;6;0;32903;2;0;0;0;0;0;7;0;23677;0;0;0;0;8;0;23485;0;0;0;0;9;0;12962;0;0;0;0
02.03.20;18:15:00;1;776;6671;0;2;0;14030;0;0;0;0;3;0;9459;0;0;0;0;4;0;15137;0;0;0;0;5;0;43555;2;0;0;0;0;0;6;0;32903;2;0;0;0;0;0;7;0;23677;0;0;0;0;8;0;23485;0;0;0;0;9;0;12962;0;0;0;0
02.03.20;18:10:00;1;988;6606;0;2;0;14030;0;0;0;0;3;0;9459;0;0;42;3;4;0;15137;0;0;0;0;5;0;43555;2;0;0;0;0;0;6;0;32903;2;0;0;0;0;0;7;0;23677;0;0;0;0;8;0;23485;0;0;0;0;9;0;12962;0;0;0;0
02.03.20;18:05:00;1;731;6532;0;2;0;14030;0;0;232;12;3;0;9459;6;0;299;18;4;0;15137;0;0;38;8;5;0;43555;2;0;0;0;0;0;6;0;32903;2;0;0;0;0;0;7;0;23677;0;0;0;0;8;0;23485;0;0;0;0;9;0;12962;0;0;0;0
02.03.20;18:00:00;1;539;6475;0;2;0;14030;6;0;308;15;3;0;9459;6;0;364;18;4;0;15137;1;0;95;15;5;0;43555;2;0;1;112;111;8;6;0;32903;2;0;0;0;0;1;7;0;23677;0;0;0;0;8;0;23485;0;0;0;0;9;0;12962;0;0;0;0
02.03.20;17:55:00;1;627;6429;0;2;0;14030;6;0;336;15;3;0;9459;6;1;402;18;4;0;15137;1;0;128;16;5;0;43555;2;0;0;327;363;25;6;0;32903;23;6;3;179;428;24;7;0;23677;0;0;0;0;8;0;23485;0;0;0;0;9;0;12962;0;0;0;0
02.03.20;17:50:00;1;599;6376;0;2;0;14030;6;0;360;15;3;0;9459;6;1;426;18;4;0;15137;1;0;163;16;5;0;43555;23;0;0;392;477;26;6;0;32903;23;7;2;181;516;24;7;0;23677;0;0;0;0;8;0;23485;6;0;98;6;9;0;12962;6;0;103;4
02.03.20;17:45:00;1;600;6326;0;2;0;14030;6;0;383;16;3;0;9459;6;0;484;18;4;0;15137;1;0;205;16;5;4;43555;1;0;0;411;647;26;6;0;32903;23;5;1;261;555;25;7;0;23677;0;0;159;7;8;0;23485;0;0;242;10;9;0;12962;0;1;243;8
02.03.20;17:40:00;1;593;6276;0;2;0;14030;6;0;401;16;3;1;9459;4;3;485;19;4;0;15137;3;0;216;17;5;59;43554;1;6;10;388;617;27;6;30;32903;1;10;20;516;495;26;7;0;23677;0;2;251;11;8;0;23485;6;2;428;18;9;1;12962;6;3;464;14
02.03.20;17:35:00;1;573;6227;0;2;5;14030;6;12;402;16;3;1;9459;6;7;480;19;4;0;15137;3;0;199;17;5;106;43549;4;29;23;380;604;27;6;68;32901;4;31;43;469;445;26;7;0;23677;0;0;0;0;8;0;23485;0;0;191;7;9;0;12961;0;4;160;5
02.03.20;17:30:00;1;497;6183;0;2;13;14030;3;25;395;17;3;2;9459;6;9;509;19;4;4;15137;3;5;199;17;5;127;43540;4;38;36;380;604;27;6;85;32895;4;44;56;469;445;26;7;2;23677;6;8;365;15;8;0;23485;6;0;194;7;9;0;12961;0;5;405;11
02.03.20;17:25:00;1;478;6141;0;2;48;14028;4;79;361;17;3;4;9458;6;9;520;19;4;23;15137;3;24;198;17;5;159;43529;4;56;40;380;604;27;6;104;32887;4;41;56;469;445;26;7;4;23677;4;7;140;6;8;0;23485;0;0;0;0;9;0;12961;0;0;92;2
02.03.20;17:20:00;1;462;6101;0;2;62;14024;4;95;368;17;3;6;9458;6;13;523;19;4;40;15135;3;42;198;17;5;195;43515;4;81;64;380;604;27;6;128;32879;4;62;75;469;445;26;7;0;23675;0;0;0;0;8;6;23485;0;15;72;3;9;0;12961;6;0;334;8
02.03.20;17:15:00;1;407;6065;0;2;76;14019;4;110;360;17;3;6;9458;6;11;532;19;4;42;15131;3;43;197;18;5;220;43499;4;91;77;380;604;27;6;146;32868;4;75;84;469;445;26;7;29;23675;0;43;183;10;8;31;23483;4;56;288;13;9;0;12961;0;0;188;5
02.03.20;17:10:00;1;417;6030;0;2;85;14013;4;116;364;18;3;8;9457;4;14;528;20;4;54;15128;3;57;197;18;5;232;43480;4;97;88;380;604;27;6;152;32855;4;77;83;469;445;27;7;57;23671;4;98;395;20;8;38;23479;4;59;242;12;9;6;12961;0;11;425;12
02.03.20;17:05:00;1;456;5995;0;2;101;14006;4;134;365;18;3;53;9456;4;87;427;20;4;63;15123;3;66;197;18;5;259;43461;4;110;95;380;604;27;6;170;32842;4;88;97;469;445;27;7;33;23666;4;51;199;10;8;13;23470;0;20;68;3;9;7;12960;6;11;260;7
02.03.20;17:00:00;1;459;5958;0;2;105;13997;4;141;363;18;3;56;9452;4;89;416;20;4;72;15118;3;75;198;18;5;270;43439;4;116;98;380;604;27;6;180;32828;4;82;89;469;445;27;7;34;23658;0;51;172;8;8;16;23467;4;25;85;4;9;0;12954;0;0;0;0
02.03.20;16:55:00;1;369;5922;0;2;114;13988;4;149;365;18;3;28;9447;6;49;532;20;4;70;15112;3;73;198;18;5;282;43417;4;123;101;380;604;28;6;187;32813;4;90;103;469;445;27;7;29;23655;4;38;150;6;8;44;23461;4;66;220;10;9;8;12954;0;12;261;7
02.03.20;16:50:00;1;363;5890;0;2;114;13979;4;149;370;18;3;59;9445;4;100;484;21;4;73;15106;3;76;198;18;5;286;43393;4;127;106;380;604;28;6;189;32798;4;102;113;469;445;27;7;71;23645;0;107;360;16;8;47;23450;0;72;279;12;9;0;12954;0;0;230;6
02.03.20;16:45:00;1;332;5859;0;2;101;13969;4;135;368;18;3;53;9440;4;92;445;21;4;65;15100;3;68;198;18;5;261;43369;4;110;95;380;604;28;6;173;32782;4;83;94;469;445;27;7;29;23640;4;54;228;10;8;23;23444;0;37;153;6;9;7;12954;4;12;453;13
02.03.20;16:40:00;1;330;5831;0;2;107;13961;4;143;363;18;3;60;9436;4;95;443;21;4;73;15094;3;76;198;19;5;281;43348;4;121;98;380;604;28;6;181;32768;4;72;82;469;445;27;7;0;23629;0;0;0;0;8;69;23439;0;97;344;16;9;9;12953;0;13;416;13
02.03.20;16:35:00;1;347;5803;0;2;131;13952;4;168;375;19;3;74;9431;4;110;441;21;4;97;15088;3;101;211;19;5;322;43324;4;151;124;380;604;28;6;211;32752;4;100;108;469;445;27;7;72;23629;0;96;298;14;8;76;23431;0;101;280;13;9;17;12952;4;25;129;5
02.03.20;16:30:00;1;366;5773;0;2;141;13941;4;179;378;19;3;82;9425;4;118;475;21;4;104;15080;5;108;220;19;5;343;43297;4;161;135;380;604;28;6;229;32734;4;107;119;468;445;27;7;0;23605;0;0;0;0;8;0;23404;0;0;0;0;9;0;12937;0;0;0;0
02.03.20;16:25:00;1;339;5742;0;2;155;13929;4;195;380;19;3;90;9418;4;128;491;21;4;120;15071;5;126;225;19;5;371;43268;4;176;145;380;604;28;6;245;32715;4;112;117;469;445;27;7;0;23605;0;0;0;0;8;0;23404;0;0;0;0;9;0;12937;0;0;0;0
02.03.20;16:20:00;1;674;5715;0;2;164;13916;4;203;371;19;3;95;9410;4;136;489;21;4;126;15061;5;131;224;19;5;385;43237;4;183;152;380;604;28;6;254;32695;4;129;134;469;445;27;7;89;23605;4;115;246;12;8;123;23404;4;157;336;16;9;50;12937;0;68;292;10
02.03.20;16:15:00;1;2135;5617;0;2;176;13903;4;214;372;19;3;101;9402;4;142;489;21;4;133;15051;5;139;224;19;5;402;43205;4;186;161;380;604;28;6;266;32673;4;136;139;469;445;27;7;90;23593;4;112;248;12;8;44;23392;4;56;120;6;9;12;12930;0;16;67;2
02.03.20;16:10:00;1;2187;5442;0;2;179;13888;4;217;366;19;3;104;9394;4;143;497;21;4;140;15040;5;145;223;20;5;412;43172;4;187;165;380;604;28;6;275;32651;4;148;156;469;445;27;7;0;23563;0;0;0;0;8;0;23366;0;0;0;0;9;0;12917;0;0;0;0
02.03.20;16:05:00;1;1294;5261;0;2;166;13873;4;204;372;19;3;93;9385;4;136;492;21;4;132;15028;5;137;224;20;5;383;43137;4;182;149;380;604;28;6;253;32628;4;109;114;469;445;27;7;56;23563;0;69;149;7;8;30;23366;4;35;75;3;9;88;12917;4;120;484;18
02.03.20;16:00:00;1;2122;5153;0;2;161;13859;4;200;371;19;3;93;9377;4;132;489;21;4;125;15017;5;130;221;20;5;369;43106;4;175;142;380;604;29;6;242;32607;4;130;137;469;445;27;7;0;23532;0;0;0;0;8;151;23350;4;186;440;21;9;16;12905;0;22;97;3
02.03.20;15:55:00;1;2112;4976;0;2;212;13846;4;253;379;20;3;118;9370;4;163;511;22;4;160;15006;5;166;226;20;5;459;43074;4;223;183;397;596;29;6;330;32587;4;163;186;511;528;27;7;149;23532;0;182;342;17;8;153;23338;4;181;353;17;9;99;12903;4;130;484;18
02.03.20;15:50:00;1;367;4824;0;2;260;13828;4;300;381;20;3;148;9360;4;193;517;22;4;205;14993;5;213;226;21;5;538;43036;4;264;219;384;620;29;6;408;32559;4;199;208;557;553;27;7;237;23521;4;281;447;22;8;194;23323;4;227;355;17;9;71;12895;4;94;311;11
02.03.20;15:45:00;1;297;4795;0;2;270;13807;4;310;374;20;3;161;9348;4;203;506;22;4;218;14976;5;227;222;21;5;577;42991;4;277;231;403;613;29;6;429;32524;4;219;239;557;548;27;7;141;23490;0;157;231;11;8;182;23299;0;211;306;14;9;24;12876;0;31;85;3
02.03.20;15:40:00;1;332;4770;0;2;267;13784;4;307;378;20;3;158;9334;4;202;511;22;4;217;14958;5;226;226;21;5;569;42942;4;277;231;397;632;29;6;433;32488;4;208;225;562;554;27;7;107;23478;4;127;185;9;8;271;23280;4;320;464;22;9;29;12874;4;37;100;3
02.03.20;15:35:00;1;416;4742;0;2;293;13762;4;338;391;20;3;178;9321;4;218;502;22;4;243;14940;5;252;230;22;5;643;42894;4;314;259;409;633;29;6;482;32452;4;243;257;572;550;28;7;285;23456;4;329;456;23;8;112;23257;4;128;190;8;9;128;12858;0;156;398;15
02.03.20;15:30:00;1;357;4707;0;2;359;13738;4;406;392;20;3;219;9307;4;263;508;22;4;297;14920;5;310;234;22;5;760;42840;4;380;314;409;661;30;6;563;32412;4;260;278;562;559;28;7;0;23402;0;0;0;0;8;213;23234;4;238;260;13;9;78;12849;4;90;202;8
02.03.20;15:25:00;1;326;4676;0;2;435;13708;4;484;394;20;3;267;9288;4;315;505;22;4;370;14896;5;386;233;22;5;931;42775;4;458;381;413;651;30;6;687;32364;4;299;304;581;562;28;7;221;23402;0;241;239;11;8;154;23193;0;167;149;7;9;43;12818;0;50;87;3
02.03.20;15:20:00;1;313;4649;0;2;488;13672;4;541;397;20;3;302;9266;4;351;497;22;4;424;14865;5;441;237;23;5;1023;42697;4;512;426;414;673;30;6;773;32306;4;376;392;576;563;28;7;207;23357;0;227;185;9;8;316;23161;0;347;279;13;9;168;12807;0;196;314;12
02.03.20;15:15:00;1;316;4622;0;2;549;13631;4;601;397;20;3;341;9241;4;392;504;22;4;474;14830;5;494;233;23;5;1156;42611;4;574;477;417;668;30;6;859;32241;4;403;424;587;565;28;7;457;23330;4;498;372;19;8;573;23127;4;626;477;23;9;307;12793;4;353;523;21
02.03.20;15:10:00;1;321;4595;0;2;629;13586;4;686;397;21;3;394;9213;4;447;508;22;4;557;14791;5;580;238;23;5;1319;42515;4;669;546;424;699;30;6;979;32169;4;492;502;591;568;28;7;674;23283;4;724;471;24;8;679;23079;4;732;469;23;9;364;12767;4;409;518;21
02.03.20;15:05:00;1;389;4568;0;2;711;13534;4;772;405;21;3;447;9180;4;501;505;22;4;630;14744;5;656;241;23;5;1474;42404;4;746;621;417;694;30;6;1106;32085;4;527;528;593;565;28;7;778;23227;4;831;468;24;8;787;23023;4;834;472;24;9;420;12737;4;472;530;21
02.03.20;15:00:00;1;296;4538;0;2;722;13475;4;782;408;21;3;454;9143;4;510;505;23;4;641;14692;5;667;240;24;5;1488;42281;4;757;631;422;680;31;6;1122;31993;4;599;598;588;570;28;7;806;23162;4;860;477;24;8;811;22956;4;857;476;24;9;436;12702;4;487;526;22
02.03.20;14:55:00;1;295;4514;0;2;676;13414;4;734;400;22;3;425;9105;4;479;509;23;4;596;14638;5;620;239;24;5;1388;42157;4;709;585;423;679;31;6;1045;31899;4;540;544;588;570;28;7;500;23070;0;534;317;16;8;768;22888;4;823;476;24;9;414;12665;4;463;525;22
02.03.20;14:50:00;1;295;4489;0;2;611;13358;4;667;400;22;3;379;9069;4;435;509;23;4;533;14589;5;555;239;24;5;1251;42042;4;630;522;413;673;31;6;942;31812;4;473;484;585;558;29;7;660;23030;4;720;476;25;8;274;22825;4;292;190;10;9;149;12631;4;167;205;8
02.03.20;14:45:00;1;270;4464;0;2;640;13307;4;697;398;22;3;396;9038;4;452;517;23;4;560;14544;5;583;238;25;5;1322;41937;4;673;555;418;676;31;6;994;31734;4;523;536;589;565;29;7;696;22975;4;744;474;25;8;694;22767;4;748;468;25;9;370;12600;4;418;526;22
02.03.20;14:40:00;1;324;4442;0;2;690;13253;4;749;398;23;3;434;9005;4;487;509;24;4;607;14497;5;633;240;25;5;1426;41827;4;724;603;422;684;31;6;1083;31650;4;547;553;588;561;29;7;754;22917;4;801;480;26;8;751;22709;4;806;469;25;9;403;12569;4;451;526;23
02.03.20;14:35:00;1;325;4414;0;2;782;13196;4;845;405;23;3;495;8969;4;551;512;24;4;692;14447;5;721;239;26;5;1618;41706;4;828;677;425;676;32;6;1209;31559;4;605;605;590;571;29;7;836;22854;4;898;472;26;8;837;22646;4;902;471;26;9;453;12535;4;506;517;23
02.03.20;14:30:00;1;293;4387;0;2;849;13131;4;912;397;24;3;537;8928;4;594;514;24;4;751;14390;5;782;239;26;5;1734;41571;4;892;741;426;690;32;6;1307;31457;4;650;662;592;574;29;7;921;22786;4;982;477;26;8;919;22579;4;988;479;26;9;497;12499;4;549;527;24
02.03.20;14:25:00;1;256;4363;0;2;916;13060;4;985;405;24;3;579;8883;4;638;523;25;4;816;14327;5;850;237;27;5;1895;41425;4;991;811;427;686;32;6;1430;31347;4;711;703;592;568;29;7;1006;22709;4;1073;477;27;8;1012;22502;4;1076;477;26;9;543;12457;4;600;522;24
02.03.20;14:20:00;1;257;4341;0;2;986;12984;4;1058;411;25;3;625;8835;4;690;522;25;4;886;14259;5;923;239;27;5;2043;41265;4;1059;867;426;700;33;6;1540;31227;4;783;776;594;571;30;7;1116;22624;4;1185;474;27;8;1117;22416;4;1188;477;27;9;604;12411;4;662;537;25